AUA38O KEWR-LOWW

Flight info

Callsign AUA38O
Flight time N/A
Altitude 35000
Route PWL132022 TOPPS N569B TUDEP/M083F360 52N050W 53N040W 54N030W 54N020W MALOT GISTI/N0474F370 BAKUR OKSAW KONAN KOK UL607 FERDI MATUG GUBAX BARSU EKSOS LULAR RUDAP BUDEX BUDEX2W LOWW
Aircraft B772/H-SDE2E3FGHIJ5LORVWXY/LB1D1

Departure

Time N/A
Airport Newark Liberty International Airport (KEWR)

Arrival

Time 2026-05-06 21:12
Airport Vienna International Airport (LOWW)
Time Latitude Longitude Altitude Speed Heading
2026-05-06 20:56 48.95259 14.31891 32370 ft 483 kts 120°
2026-05-06 20:56 48.93213 14.37365 31703 ft 465 kts 135°
2026-05-06 20:56 48.91121 14.41056 31192 ft 464 kts 138°
2026-05-06 20:56 48.88962 14.44627 30558 ft 460 kts 137°
2026-05-06 20:57 48.86875 14.48353 29645 ft 462 kts 134°
2026-05-06 20:57 48.84942 14.52304 28709 ft 468 kts 130°
2026-05-06 20:57 48.82032 14.58655 28110 ft 465 kts 130°
2026-05-06 20:57 48.78215 14.66530 27550 ft 454 kts 133°
2026-05-06 20:58 48.74401 14.73949 26648 ft 448 kts 134°
2026-05-06 20:58 48.70590 14.81376 25466 ft 438 kts 134°
2026-05-06 20:58 48.66930 14.88514 24288 ft 431 kts 133°
2026-05-06 20:58 48.63273 14.95628 23126 ft 424 kts 133°
2026-05-06 20:59 48.59713 15.02557 21855 ft 415 kts 131°
2026-05-06 20:59 48.57463 15.10561 20763 ft 417 kts 105°
2026-05-06 20:59 48.56815 15.16745 20032 ft 397 kts 105°
2026-05-06 20:59 48.56244 15.20682 19590 ft 385 kts 110°
2026-05-06 21:00 48.55511 15.24597 19140 ft 384 kts 111°
2026-05-06 21:00 48.54756 15.28446 18682 ft 387 kts 111°
2026-05-06 21:00 48.53983 15.32562 18202 ft 393 kts 110°
2026-05-06 21:00 48.52554 15.40706 17130 ft 400 kts 109°
2026-05-06 21:01 48.51461 15.48841 16268 ft 395 kts 101°
2026-05-06 21:01 48.51230 15.56870 15450 ft 386 kts 91°
2026-05-06 21:01 48.51432 15.64937 14747 ft 384 kts 90°
2026-05-06 21:01 48.51597 15.73067 13986 ft 386 kts 91°
2026-05-06 21:02 48.51690 15.81083 13214 ft 386 kts 91°
2026-05-06 21:02 48.51758 15.89231 12343 ft 384 kts 91°
2026-05-06 21:02 48.51813 15.96452 11676 ft 377 kts 91°
2026-05-06 21:02 48.51844 16.00279 11255 ft 348 kts 92°
2026-05-06 21:03 48.51881 16.04803 10797 ft 315 kts 92°
2026-05-06 21:03 48.51915 16.09296 10349 ft 285 kts 92°
2026-05-06 21:03 48.51936 16.13243 10194 ft 291 kts 93°
2026-05-06 21:03 48.51960 16.19356 9663 ft 291 kts 92°
2026-05-06 21:04 48.51993 16.25268 9024 ft 275 kts 92°
2026-05-06 21:04 48.52015 16.30983 8475 ft 274 kts 92°
2026-05-06 21:04 48.52011 16.36870 7953 ft 283 kts 98°
2026-05-06 21:04 48.50017 16.41470 7381 ft 265 kts 156°
2026-05-06 21:05 48.46593 16.43209 6874 ft 258 kts 168°
2026-05-06 21:05 48.45398 16.43680 6685 ft 256 kts 169°
2026-05-06 21:05 48.43685 16.44334 6430 ft 253 kts 168°
2026-05-06 21:05 48.41433 16.45254 6094 ft 251 kts 168°
2026-05-06 21:06 48.40318 16.45728 5930 ft 248 kts 167°
2026-05-06 21:06 48.38697 16.46427 5654 ft 236 kts 168°
2026-05-06 21:06 48.37129 16.47103 5436 ft 230 kts 168°
2026-05-06 21:06 48.35611 16.47755 5215 ft 227 kts 168°
2026-05-06 21:07 48.34126 16.48392 5027 ft 221 kts 168°
2026-05-06 21:07 48.32644 16.49024 4749 ft 221 kts 168°
2026-05-06 21:07 48.31169 16.49654 4461 ft 217 kts 169°
2026-05-06 21:07 48.29743 16.50262 4228 ft 212 kts 168°
2026-05-06 21:08 48.28368 16.50850 3922 ft 199 kts 169°
2026-05-06 21:08 48.27062 16.51408 3675 ft 193 kts 169°
2026-05-06 21:08 48.25783 16.51952 3419 ft 192 kts 169°
2026-05-06 21:08 48.24541 16.52483 3160 ft 179 kts 170°
2026-05-06 21:09 48.23366 16.52983 2960 ft 169 kts 170°
2026-05-06 21:09 48.22263 16.53453 2739 ft 164 kts 170°
2026-05-06 21:09 48.21207 16.53903 2523 ft 148 kts 170°
2026-05-06 21:09 48.20257 16.54308 2351 ft 135 kts 171°
2026-05-06 21:10 48.19381 16.54677 2185 ft 131 kts 171°
2026-05-06 21:10 48.18507 16.55042 2013 ft 130 kts 171°
2026-05-06 21:10 48.17643 16.55392 1770 ft 125 kts 170°
2026-05-06 21:10 48.16818 16.55741 1566 ft 122 kts 168°
2026-05-06 21:11 48.16007 16.56088 1449 ft 122 kts 167°
2026-05-06 21:11 48.15192 16.56431 1286 ft 122 kts 165°
2026-05-06 21:11 48.14376 16.56797 1160 ft 123 kts 163°
2026-05-06 21:11 48.13566 16.57140 996 ft 122 kts 164°
2026-05-06 21:12 48.12731 16.57486 803 ft 126 kts 163°
2026-05-06 21:12 48.11890 16.57850 658 ft 128 kts 164°
2026-05-06 21:12 48.11104 16.58184 628 ft 99 kts 164°
2026-05-06 21:12 48.10616 16.58392 628 ft 46 kts 164°
2026-05-06 21:13 48.10427 16.58458 628 ft 23 kts 174°
2026-05-06 21:13 48.10268 16.58448 628 ft 23 kts 191°
2026-05-06 21:13 48.10145 16.58376 628 ft 16 kts 230°
2026-05-06 21:13 48.10167 16.58301 621 ft 9 kts 348°
2026-05-06 21:14 48.10231 16.58281 627 ft 10 kts 347°
2026-05-06 21:14 48.10320 16.58245 626 ft 21 kts 345°
2026-05-06 21:14 48.10504 16.58165 625 ft 29 kts 343°
2026-05-06 21:14 48.10691 16.58084 626 ft 22 kts 344°
2026-05-06 21:15 48.10836 16.58021 626 ft 22 kts 344°
2026-05-06 21:15 48.10979 16.57960 626 ft 22 kts 344°
2026-05-06 21:15 48.11106 16.57859 625 ft 21 kts 304°
2026-05-06 21:15 48.11174 16.57666 624 ft 21 kts 295°
2026-05-06 21:16 48.11237 16.57468 622 ft 21 kts 295°
2026-05-06 21:16 48.11301 16.57273 622 ft 21 kts 296°
2026-05-06 21:16 48.11366 16.57076 628 ft 21 kts 296°
2026-05-06 21:16 48.11435 16.56884 630 ft 20 kts 319°
2026-05-06 21:17 48.11529 16.56917 626 ft 13 kts 27°
2026-05-06 21:17 48.11599 16.56857 624 ft 13 kts 300°
2026-05-06 21:17 48.11639 16.56733 623 ft 13 kts 296°
2026-05-06 21:17 48.11679 16.56609 625 ft 13 kts 296°
2026-05-06 21:18 48.11718 16.56485 627 ft 11 kts 296°
2026-05-06 21:18 48.11764 16.56470 624 ft 6 kts 27°
2026-05-06 21:18 48.11800 16.56497 625 ft 6 kts 26°
2026-05-06 21:18 48.11808 16.56503 623 ft 0 kts 26°